Regional Weather Roundup
Issued by NWS

Home | Current Version | Previous Version | Text Only | Print | Product List | Glossary Off
Versions: 1 2 3 4 5 6 7 8 9 10 11 12 13 14 15 16 17 18 19 20 21 22 23 24 25 26 27 28 29 30 31 32 33 34 35 36 37 38 39 40 41 42 43 44 45 46 47 48 49 50

000
ASUS43 KFSD 042310
RWRSD

WEATHER ROUNDUP FOR SOUTH DAKOTA
NATIONAL WEATHER SERVICE SIOUX FALLS SD
600 PM CDT FRI SEP 04 2015

NOTE: "FAIR" INDICATES FEW OR NO CLOUDS BELOW 12,000 FEET WITH NO
SIGNIFICANT WEATHER AND/OR OBSTRUCTIONS TO VISIBILITY.


SDZ001>005-009-010-012>017-050000-
NORTHWEST AND NORTH CENTRAL SOUTH DAKOTA

CITY           SKY/WX    TMP DP  RH WIND       PRES   REMARKS
BUFFALO          N/A     88  58  36 E8        29.74S
FAITH            N/A     90  51  26 E8        29.78R
MOBRIDGE         N/A     90  65  43 E9        29.73S
$$

SDZ012>016-024>037-041>051-057-063-072>074-050000-
SOUTHWEST AND SOUTH CENTRAL SOUTH DAKOTA

CITY           SKY/WX    TMP DP  RH WIND       PRES   REMARKS
RAPID CTY ARPT SUNNY     88  61  40 N8        29.78F
PIERRE         MOSUNNY   90  66  45 SE10      29.72R
CUSTER         MOSUNNY   82  35  18 SW7       29.96S
PHILIP         SUNNY     89  63  41 NE12      29.74S
PINE RIDGE     CLOUDY    91  49  23 SE3       29.81S
WINNER         FAIR      91  60  35 SE8       29.75S
$$

SDZ004>011-016>023-039-040-050000-
NORTHEAST SOUTH DAKOTA

CITY           SKY/WX    TMP DP  RH WIND       PRES   REMARKS
ABERDEEN       PTSUNNY   87  70  56 S10       29.77S
WATERTOWN      SUNNY     82  67  60 SE13      29.82F
BROOKINGS      MOSUNNY  N/A N/A N/A SE20G25   29.83F
SISSETON         N/A     85  71  63 S14G21    29.81R
$$

SDZ017-020-022-023-036>040-048>070-050000-
SOUTHEAST SOUTH DAKOTA

CITY           SKY/WX    TMP DP  RH WIND       PRES   REMARKS
SIOUX FALLS    PTSUNNY   81  73  76 SE14G21   29.84S
HURON          PTSUNNY   86  71  60 SE14      29.75R
CHAMBERLAIN    SUNNY     87  69  56 S5        29.74R
MITCHELL       SUNNY     88  72  58 SE20G25   29.75F
YANKTON        MOSUNNY   86  73  66 SE13G21   29.78S
$$

ABBREVIATIONS USED IN REMARKS
   TC - TEMPERATURE IN CELSIUS
  WCI - WIND CHILL INDEX
   HX - HEAT INDEX
  VSB - VISIBILITY




USA.gov is the U.S. government's official web portal to all federal, state and local government web resources and services.